DAL458 KSAN-KSEA

Flight info

Callsign DAL458
Flight time 2h 34m
Altitude 36000
Route PADRZ2 EHF SHIMR LKV HAWKZ8
Aircraft A321/M-SDE3FGHIRWY/LB1

Departure

Time 2026-05-07 22:35
Airport San Diego International Airport (KSAN)

Arrival

Time 2026-05-08 01:10
Airport Seattle–Tacoma International Airport (KSEA)
Time Latitude Longitude Altitude Speed Heading
2026-05-07 22:02 32.73371 -117.19777 25 ft 0 kts 255°
2026-05-07 22:27 32.73373 -117.19772 24 ft 3 kts 253°
2026-05-07 22:27 32.73383 -117.19743 26 ft 4 kts 233°
2026-05-07 22:27 32.73401 -117.19722 25 ft 4 kts 197°
2026-05-07 22:27 32.73425 -117.19722 28 ft 4 kts 148°
2026-05-07 22:28 32.73438 -117.19738 26 ft 1 kts 105°
2026-05-07 22:30 32.73438 -117.19737 26 ft 0 kts 105°
2026-05-07 22:30 32.73430 -117.19701 28 ft 8 kts 105°
2026-05-07 22:30 32.73417 -117.19644 30 ft 7 kts 105°
2026-05-07 22:30 32.73406 -117.19599 27 ft 6 kts 105°
2026-05-07 22:31 32.73388 -117.19522 27 ft 13 kts 105°
2026-05-07 22:31 32.73356 -117.19385 29 ft 20 kts 106°
2026-05-07 22:31 32.73317 -117.19227 26 ft 20 kts 106°
2026-05-07 22:31 32.73282 -117.19078 26 ft 17 kts 105°
2026-05-07 22:32 32.73249 -117.18947 26 ft 16 kts 107°
2026-05-07 22:32 32.73219 -117.18828 28 ft 14 kts 107°
2026-05-07 22:32 32.73192 -117.18718 29 ft 16 kts 107°
2026-05-07 22:32 32.73150 -117.18550 28 ft 27 kts 106°
2026-05-07 22:33 32.73098 -117.18330 30 ft 27 kts 105°
2026-05-07 22:33 32.73046 -117.18113 22 ft 28 kts 106°
2026-05-07 22:33 32.72994 -117.17898 23 ft 26 kts 106°
2026-05-07 22:33 32.72949 -117.17723 21 ft 14 kts 101°
2026-05-07 22:34 32.72969 -117.17629 24 ft 10 kts 58°
2026-05-07 22:34 32.73017 -117.17602 25 ft 7 kts 347°
2026-05-07 22:34 32.73038 -117.17650 24 ft 7 kts 276°
2026-05-07 22:34 32.73050 -117.17711 23 ft 9 kts 286°
2026-05-07 22:35 32.73111 -117.17964 22 ft 66 kts 286°
2026-05-07 22:35 32.73299 -117.18728 26 ft 124 kts 286°
2026-05-07 22:35 32.73575 -117.19893 64 ft 163 kts 287°
2026-05-07 22:35 32.73881 -117.21169 714 ft 158 kts 289°
2026-05-07 22:36 32.74409 -117.22317 1309 ft 159 kts 303°
2026-05-07 22:36 32.75006 -117.23405 1894 ft 157 kts 303°
2026-05-07 22:36 32.75649 -117.24483 2362 ft 162 kts 304°
2026-05-07 22:36 32.76310 -117.25578 2838 ft 164 kts 305°
2026-05-07 22:37 32.76994 -117.26735 3084 ft 181 kts 304°
2026-05-07 22:37 32.77745 -117.28039 3220 ft 201 kts 304°
2026-05-07 22:37 32.78573 -117.29476 3371 ft 219 kts 304°
2026-05-07 22:37 32.79479 -117.31051 3506 ft 244 kts 304°
2026-05-07 22:38 32.80482 -117.32740 3889 ft 260 kts 306°
2026-05-07 22:38 32.81590 -117.34475 4571 ft 266 kts 307°
2026-05-07 22:38 32.82736 -117.36224 5290 ft 270 kts 308°
2026-05-07 22:38 32.83901 -117.37992 5994 ft 273 kts 308°
2026-05-07 22:39 32.85078 -117.39786 6679 ft 277 kts 308°
2026-05-07 22:39 32.86263 -117.41610 7340 ft 281 kts 308°
2026-05-07 22:39 32.87459 -117.43461 8002 ft 284 kts 308°
2026-05-07 22:39 32.88668 -117.45339 8643 ft 287 kts 308°
2026-05-07 22:40 32.89886 -117.47237 9241 ft 290 kts 308°
2026-05-07 22:40 32.91118 -117.49157 9845 ft 294 kts 308°
2026-05-07 22:40 32.92377 -117.51115 10258 ft 307 kts 309°
2026-05-07 22:40 32.93722 -117.53201 10391 ft 328 kts 309°
2026-05-07 22:41 32.95145 -117.55411 10646 ft 343 kts 309°
2026-05-07 22:41 32.96610 -117.57692 11230 ft 348 kts 309°
2026-05-07 22:41 32.98090 -117.60003 11884 ft 352 kts 309°
2026-05-07 22:41 32.99579 -117.62328 12570 ft 354 kts 309°
2026-05-07 22:42 33.01080 -117.64671 13234 ft 357 kts 309°
2026-05-07 22:42 33.02589 -117.67032 13877 ft 360 kts 309°
2026-05-07 22:42 33.04116 -117.69423 14505 ft 364 kts 310°
2026-05-07 22:42 33.05131 -117.71013 14922 ft 366 kts 310°
2026-05-07 22:43 33.07397 -117.73998 15717 ft 366 kts 322°
2026-05-07 22:43 33.09346 -117.75975 16313 ft 369 kts 322°
2026-05-07 22:43 33.11310 -117.77965 16899 ft 372 kts 322°
2026-05-07 22:43 33.13289 -117.79973 17457 ft 375 kts 322°
2026-05-07 22:44 33.14633 -117.81338 17828 ft 377 kts 322°
2026-05-07 22:44 33.16638 -117.83377 18370 ft 380 kts 322°
2026-05-07 22:44 33.18658 -117.85436 18889 ft 383 kts 322°
2026-05-07 22:44 33.20668 -117.87474 19389 ft 385 kts 323°
2026-05-07 22:45 33.22742 -117.89520 19894 ft 388 kts 323°
2026-05-07 22:45 33.24843 -117.91561 20359 ft 391 kts 324°
2026-05-07 22:45 33.26967 -117.93609 20820 ft 394 kts 324°
2026-05-07 22:45 33.29104 -117.95673 21280 ft 396 kts 323°
2026-05-07 22:46 33.31252 -117.97758 21735 ft 399 kts 323°
2026-05-07 22:46 33.33417 -117.99868 22173 ft 402 kts 323°
2026-05-07 22:46 33.35594 -118.01996 22599 ft 405 kts 323°
2026-05-07 22:46 33.37782 -118.04139 23012 ft 408 kts 323°
2026-05-07 22:47 33.39982 -118.06300 23413 ft 410 kts 322°
2026-05-07 22:47 33.42196 -118.08477 23810 ft 413 kts 322°
2026-05-07 22:47 33.44429 -118.10671 24198 ft 416 kts 322°
2026-05-07 22:47 33.46639 -118.12845 24578 ft 418 kts 322°
2026-05-07 22:48 33.48891 -118.15063 24957 ft 420 kts 322°
2026-05-07 22:48 33.51158 -118.17290 25338 ft 422 kts 322°
2026-05-07 22:48 33.53435 -118.19526 25714 ft 424 kts 322°
2026-05-07 22:48 33.55722 -118.21774 26082 ft 426 kts 323°
2026-05-07 22:49 33.58140 -118.23818 26433 ft 425 kts 332°
2026-05-07 22:49 33.60792 -118.25391 26772 ft 426 kts 337°
2026-05-07 22:49 33.63492 -118.26876 27122 ft 428 kts 337°
2026-05-07 22:49 33.66210 -118.28367 27447 ft 429 kts 337°
2026-05-07 22:50 33.68934 -118.29861 27786 ft 431 kts 337°
2026-05-07 22:50 33.71674 -118.31368 28116 ft 433 kts 337°
2026-05-07 22:50 33.74415 -118.32881 28426 ft 434 kts 337°
2026-05-07 22:50 33.77173 -118.34390 28729 ft 436 kts 338°
2026-05-07 22:51 33.79960 -118.35845 29032 ft 437 kts 339°
2026-05-07 22:51 33.82773 -118.37258 29325 ft 439 kts 339°
2026-05-07 22:51 33.85606 -118.38653 29596 ft 440 kts 339°
2026-05-07 22:51 33.88446 -118.40050 29870 ft 442 kts 339°
2026-05-07 22:52 33.91255 -118.41442 30145 ft 443 kts 339°
2026-05-07 22:52 33.94102 -118.42869 30399 ft 445 kts 339°
2026-05-07 22:52 33.96965 -118.44318 30675 ft 446 kts 339°
2026-05-07 22:52 33.99870 -118.45630 31065 ft 443 kts 345°
2026-05-07 22:53 34.02875 -118.46406 31412 ft 441 kts 354°
2026-05-07 22:53 34.05915 -118.46878 31759 ft 440 kts 354°
2026-05-07 22:53 34.08948 -118.47338 32134 ft 439 kts 354°
2026-05-07 22:53 34.11981 -118.47795 32485 ft 438 kts 354°
2026-05-07 22:54 34.15001 -118.48253 32836 ft 437 kts 354°
2026-05-07 22:54 34.18020 -118.48716 33195 ft 436 kts 354°
2026-05-07 22:54 34.21026 -118.49178 33538 ft 435 kts 354°
2026-05-07 22:54 34.24023 -118.49639 33870 ft 434 kts 354°
2026-05-07 22:55 34.27013 -118.50098 34215 ft 432 kts 354°
2026-05-07 22:55 34.29996 -118.50554 34516 ft 432 kts 354°
2026-05-07 22:55 34.32974 -118.51015 34809 ft 431 kts 354°
2026-05-07 22:55 34.35948 -118.51479 35103 ft 431 kts 354°
2026-05-07 22:56 34.38924 -118.51941 35379 ft 431 kts 354°
2026-05-07 22:56 34.41896 -118.52399 35659 ft 430 kts 354°
2026-05-07 22:56 34.44864 -118.52857 35938 ft 430 kts 354°
2026-05-07 22:56 34.47831 -118.53315 36061 ft 429 kts 354°
2026-05-07 22:57 34.50781 -118.53772 36092 ft 426 kts 354°
2026-05-07 22:57 34.56656 -118.54680 36104 ft 425 kts 354°
2026-05-07 22:58 34.62493 -118.55589 36121 ft 425 kts 354°
2026-05-07 22:58 34.68359 -118.56508 36133 ft 425 kts 354°
2026-05-07 22:59 34.74233 -118.57429 36146 ft 426 kts 354°
2026-05-07 22:59 34.80114 -118.58345 36151 ft 426 kts 354°
2026-05-07 23:00 34.86000 -118.59253 36154 ft 426 kts 354°
2026-05-07 23:00 34.91845 -118.60157 36154 ft 426 kts 354°
2026-05-07 23:01 34.97728 -118.61154 36156 ft 428 kts 348°
2026-05-07 23:01 35.03268 -118.63914 36155 ft 431 kts 329°
2026-05-07 23:02 35.07960 -118.68426 36146 ft 433 kts 322°
2026-05-07 23:02 35.12605 -118.73139 36133 ft 434 kts 322°
2026-05-07 23:03 35.17244 -118.77861 36137 ft 434 kts 322°
2026-05-07 23:03 35.21897 -118.82588 36120 ft 434 kts 322°
2026-05-07 23:04 35.26547 -118.87314 36109 ft 435 kts 322°
2026-05-07 23:04 35.31203 -118.92054 36074 ft 434 kts 322°
2026-05-07 23:05 35.35844 -118.96796 36061 ft 434 kts 322°
2026-05-07 23:05 35.40477 -119.01547 36053 ft 435 kts 322°
2026-05-07 23:06 35.45120 -119.06307 36034 ft 435 kts 322°
2026-05-07 23:06 35.50178 -119.10187 36028 ft 431 kts 339°
2026-05-07 23:07 35.55903 -119.12344 36023 ft 430 kts 345°
2026-05-07 23:07 35.61664 -119.14355 36022 ft 431 kts 345°
2026-05-07 23:08 35.67436 -119.16388 36023 ft 431 kts 345°
2026-05-07 23:08 35.73203 -119.18424 36022 ft 431 kts 345°
2026-05-07 23:09 35.78979 -119.20467 36021 ft 431 kts 345°
2026-05-07 23:09 35.84753 -119.22504 36022 ft 431 kts 345°
2026-05-07 23:10 35.90528 -119.24544 36023 ft 432 kts 345°
2026-05-07 23:10 35.96304 -119.26596 36026 ft 432 kts 345°
2026-05-07 23:11 36.02075 -119.28652 36026 ft 432 kts 345°
2026-05-07 23:11 36.07859 -119.30704 36025 ft 433 kts 345°
2026-05-07 23:12 36.13609 -119.32749 36027 ft 433 kts 345°
2026-05-07 23:12 36.19402 -119.34815 36027 ft 433 kts 345°
2026-05-07 23:13 36.25193 -119.36886 36029 ft 433 kts 345°
2026-05-07 23:13 36.30986 -119.38957 36031 ft 433 kts 345°
2026-05-07 23:14 36.36778 -119.41029 36030 ft 433 kts 345°
2026-05-07 23:14 36.42576 -119.43106 36030 ft 434 kts 344°
2026-05-07 23:15 36.48372 -119.45190 36028 ft 434 kts 344°
2026-05-07 23:15 36.54185 -119.47289 36026 ft 434 kts 344°
2026-05-07 23:16 36.59990 -119.49385 36021 ft 434 kts 344°
2026-05-07 23:16 36.65791 -119.51474 36015 ft 434 kts 344°
2026-05-07 23:17 36.71553 -119.53555 36010 ft 434 kts 344°
2026-05-07 23:17 36.77353 -119.55661 36012 ft 434 kts 344°
2026-05-07 23:18 36.83162 -119.57766 36019 ft 434 kts 344°
2026-05-07 23:18 36.88964 -119.59876 36024 ft 434 kts 344°
2026-05-07 23:19 36.94770 -119.61988 36030 ft 434 kts 344°
2026-05-07 23:19 37.00565 -119.64103 36031 ft 434 kts 344°
2026-05-07 23:20 37.06359 -119.66219 36031 ft 434 kts 344°
2026-05-07 23:20 37.12166 -119.68340 36033 ft 434 kts 344°
2026-05-07 23:21 37.17963 -119.70462 36039 ft 435 kts 344°
2026-05-07 23:21 37.23770 -119.72588 36049 ft 434 kts 344°
2026-05-07 23:22 37.29548 -119.74706 36052 ft 434 kts 344°
2026-05-07 23:22 37.35350 -119.76845 36055 ft 434 kts 344°
2026-05-07 23:23 37.41159 -119.78992 36067 ft 435 kts 344°
2026-05-07 23:23 37.46969 -119.81130 36068 ft 435 kts 344°
2026-05-07 23:24 37.52781 -119.83278 36077 ft 435 kts 343°
2026-05-07 23:24 37.58566 -119.85420 36088 ft 436 kts 343°
2026-05-07 23:25 37.64392 -119.87587 36095 ft 436 kts 343°
2026-05-07 23:25 37.69241 -119.89385 36094 ft 436 kts 343°
2026-05-07 23:26 37.75077 -119.91556 36089 ft 437 kts 343°
2026-05-07 23:26 37.80908 -119.93729 36089 ft 437 kts 343°
2026-05-07 23:27 37.90620 -119.97358 36093 ft 437 kts 343°
2026-05-07 23:27 37.95470 -119.99172 36095 ft 437 kts 343°
2026-05-07 23:28 38.01310 -120.01357 36102 ft 437 kts 343°
2026-05-07 23:28 38.07138 -120.03551 36112 ft 437 kts 343°
2026-05-07 23:29 38.12972 -120.05742 36117 ft 437 kts 343°
2026-05-07 23:29 38.18765 -120.07922 36124 ft 437 kts 343°
2026-05-07 23:30 38.24661 -120.09765 36125 ft 436 kts 354°
2026-05-07 23:30 38.30722 -120.10328 36140 ft 436 kts 356°
2026-05-07 23:31 38.36777 -120.10869 36149 ft 436 kts 356°
2026-05-07 23:31 38.42834 -120.11421 36152 ft 436 kts 355°
2026-05-07 23:32 38.48857 -120.11965 36162 ft 436 kts 355°
2026-05-07 23:32 38.54913 -120.12510 36168 ft 436 kts 355°
2026-05-07 23:33 38.60969 -120.13072 36172 ft 436 kts 355°
2026-05-07 23:33 38.67030 -120.13640 36183 ft 436 kts 355°
2026-05-07 23:34 38.73085 -120.14199 36197 ft 436 kts 355°
2026-05-07 23:34 38.79142 -120.14746 36211 ft 436 kts 355°
2026-05-07 23:35 38.85193 -120.15294 36223 ft 436 kts 355°
2026-05-07 23:35 38.91209 -120.15847 36231 ft 436 kts 355°
2026-05-07 23:36 38.97254 -120.16413 36238 ft 435 kts 355°
2026-05-07 23:36 39.03312 -120.16978 36239 ft 435 kts 355°
2026-05-07 23:37 39.09312 -120.17536 36242 ft 434 kts 355°
2026-05-07 23:37 39.15348 -120.18098 36244 ft 434 kts 355°
2026-05-07 23:38 39.21371 -120.18654 36245 ft 434 kts 355°
2026-05-07 23:38 39.27388 -120.19211 36247 ft 433 kts 355°
2026-05-07 23:39 39.33399 -120.19772 36246 ft 433 kts 355°
2026-05-07 23:39 39.39406 -120.20331 36245 ft 432 kts 355°
2026-05-07 23:40 39.45373 -120.20890 36242 ft 432 kts 355°
2026-05-07 23:40 39.51375 -120.21454 36238 ft 432 kts 354°
2026-05-07 23:41 39.57367 -120.22019 36236 ft 431 kts 355°
2026-05-07 23:41 39.63361 -120.22581 36228 ft 431 kts 355°
2026-05-07 23:42 39.69343 -120.23153 36221 ft 431 kts 354°
2026-05-07 23:42 39.75321 -120.23721 36209 ft 430 kts 354°
2026-05-07 23:43 39.81295 -120.24280 36198 ft 430 kts 355°
2026-05-07 23:43 39.87268 -120.24842 36189 ft 430 kts 354°
2026-05-07 23:44 39.93202 -120.25408 36182 ft 430 kts 354°
2026-05-07 23:44 39.99179 -120.25984 36186 ft 430 kts 354°
2026-05-07 23:45 40.05150 -120.26550 36186 ft 430 kts 354°
2026-05-07 23:45 40.11131 -120.27115 36174 ft 430 kts 354°
2026-05-07 23:46 40.17098 -120.27694 36168 ft 430 kts 354°
2026-05-07 23:46 40.23061 -120.28269 36169 ft 429 kts 354°
2026-05-07 23:47 40.28988 -120.28834 36164 ft 430 kts 354°
2026-05-07 23:47 40.34949 -120.29398 36153 ft 430 kts 354°
2026-05-07 23:48 40.40918 -120.29971 36146 ft 430 kts 354°
2026-05-07 23:48 40.46880 -120.30549 36130 ft 429 kts 354°
2026-05-07 23:49 40.52850 -120.31130 36128 ft 429 kts 354°
2026-05-07 23:49 40.58804 -120.31710 36130 ft 429 kts 354°
2026-05-07 23:50 40.64750 -120.32284 36129 ft 429 kts 354°
2026-05-07 23:50 40.70707 -120.32864 36129 ft 429 kts 354°
2026-05-07 23:51 40.76660 -120.33442 36133 ft 429 kts 354°
2026-05-07 23:51 40.82612 -120.34021 36132 ft 429 kts 354°
2026-05-07 23:52 40.88525 -120.34598 36135 ft 428 kts 354°
2026-05-07 23:52 40.94495 -120.35188 36144 ft 427 kts 354°
2026-05-07 23:53 41.00393 -120.35762 36148 ft 427 kts 354°
2026-05-07 23:53 41.06339 -120.36343 36130 ft 427 kts 353°
2026-05-07 23:54 41.12263 -120.36925 36133 ft 427 kts 353°
2026-05-07 23:54 41.18199 -120.37506 36138 ft 427 kts 353°
2026-05-07 23:55 41.24071 -120.38095 36137 ft 426 kts 353°
2026-05-07 23:55 41.29984 -120.38679 36132 ft 426 kts 353°
2026-05-07 23:56 41.35898 -120.39263 36131 ft 425 kts 353°
2026-05-07 23:56 41.41806 -120.39852 36132 ft 425 kts 353°
2026-05-07 23:57 41.47702 -120.40442 36138 ft 425 kts 353°
2026-05-07 23:57 41.53585 -120.41025 36137 ft 424 kts 353°
2026-05-07 23:58 41.59469 -120.41615 36133 ft 424 kts 353°
2026-05-07 23:58 41.65350 -120.42203 36131 ft 424 kts 353°
2026-05-07 23:59 41.71242 -120.42787 36133 ft 423 kts 353°
2026-05-07 23:59 41.77067 -120.43372 36133 ft 423 kts 353°
2026-05-08 00:00 41.82933 -120.43964 36134 ft 422 kts 353°
2026-05-08 00:00 41.88795 -120.44556 36129 ft 422 kts 353°
2026-05-08 00:01 41.94655 -120.45139 36133 ft 422 kts 353°
2026-05-08 00:01 42.00517 -120.45734 36135 ft 422 kts 352°
2026-05-08 00:02 42.06378 -120.46331 36134 ft 422 kts 352°
2026-05-08 00:02 42.12236 -120.46922 36136 ft 421 kts 352°
2026-05-08 00:03 42.18075 -120.47507 36139 ft 421 kts 352°
2026-05-08 00:03 42.23881 -120.48097 36138 ft 420 kts 352°
2026-05-08 00:04 42.29719 -120.48701 36130 ft 420 kts 352°
2026-05-08 00:04 42.35552 -120.49307 36135 ft 420 kts 352°
2026-05-08 00:05 42.41383 -120.49905 36125 ft 420 kts 352°
2026-05-08 00:05 42.47212 -120.50544 36131 ft 419 kts 348°
2026-05-08 00:06 42.52727 -120.52789 36125 ft 412 kts 333°
2026-05-08 00:06 42.57962 -120.55959 36123 ft 412 kts 334°
2026-05-08 00:07 42.63208 -120.59130 36121 ft 413 kts 334°
2026-05-08 00:07 42.68427 -120.62288 36120 ft 413 kts 333°
2026-05-08 00:08 42.73669 -120.65476 36118 ft 413 kts 333°
2026-05-08 00:08 42.78908 -120.68669 36113 ft 413 kts 333°
2026-05-08 00:09 42.84166 -120.71873 36110 ft 413 kts 333°
2026-05-08 00:09 42.89422 -120.75083 36107 ft 414 kts 333°
2026-05-08 00:10 42.94655 -120.78287 36107 ft 415 kts 333°
2026-05-08 00:10 42.99923 -120.81512 36109 ft 415 kts 333°
2026-05-08 00:11 43.05200 -120.84756 36117 ft 416 kts 333°
2026-05-08 00:11 43.10477 -120.88012 36120 ft 416 kts 333°
2026-05-08 00:12 43.15756 -120.91262 36126 ft 416 kts 333°
2026-05-08 00:12 43.21030 -120.94518 36126 ft 415 kts 333°
2026-05-08 00:13 43.26303 -120.97787 36134 ft 415 kts 333°
2026-05-08 00:13 43.31573 -121.01045 36132 ft 415 kts 333°
2026-05-08 00:14 43.36827 -121.04311 36129 ft 414 kts 333°
2026-05-08 00:14 43.42075 -121.07588 36130 ft 414 kts 333°
2026-05-08 00:15 43.47288 -121.10844 36124 ft 414 kts 333°
2026-05-08 00:15 43.52538 -121.14117 36135 ft 414 kts 333°
2026-05-08 00:16 43.56932 -121.16867 36136 ft 414 kts 333°
2026-05-08 00:16 43.62165 -121.20148 36134 ft 414 kts 332°
2026-05-08 00:17 43.67406 -121.23443 36137 ft 413 kts 332°
2026-05-08 00:17 43.72601 -121.26719 36135 ft 413 kts 332°
2026-05-08 00:18 43.77829 -121.30015 36130 ft 413 kts 332°
2026-05-08 00:18 43.83056 -121.33312 36136 ft 413 kts 332°
2026-05-08 00:19 43.88275 -121.36617 36134 ft 412 kts 332°
2026-05-08 00:19 43.93490 -121.39926 36142 ft 412 kts 332°
2026-05-08 00:20 43.98700 -121.43245 36136 ft 412 kts 332°
2026-05-08 00:20 44.03916 -121.46571 36135 ft 412 kts 332°
2026-05-08 00:21 44.09116 -121.49890 36126 ft 411 kts 332°
2026-05-08 00:21 44.14307 -121.53207 36119 ft 410 kts 332°
2026-05-08 00:22 44.19496 -121.56531 36115 ft 410 kts 332°
2026-05-08 00:22 44.24688 -121.59856 36111 ft 410 kts 332°
2026-05-08 00:23 44.29844 -121.63179 36110 ft 410 kts 332°
2026-05-08 00:23 44.35053 -121.66543 36109 ft 410 kts 332°
2026-05-08 00:24 44.40202 -121.69867 36106 ft 410 kts 332°
2026-05-08 00:24 44.45382 -121.73215 36092 ft 410 kts 332°
2026-05-08 00:25 44.50556 -121.76568 36081 ft 410 kts 332°
2026-05-08 00:25 44.55730 -121.79926 36075 ft 410 kts 332°
2026-05-08 00:26 44.60901 -121.83294 36074 ft 410 kts 331°
2026-05-08 00:26 44.66068 -121.86671 36068 ft 409 kts 332°
2026-05-08 00:27 44.71235 -121.90044 36065 ft 409 kts 332°
2026-05-08 00:27 44.76403 -121.93427 36066 ft 409 kts 331°
2026-05-08 00:28 44.81567 -121.96821 36061 ft 410 kts 331°
2026-05-08 00:28 44.86731 -122.00218 36066 ft 409 kts 331°
2026-05-08 00:29 44.91896 -122.03615 36052 ft 410 kts 331°
2026-05-08 00:29 44.97043 -122.07012 36050 ft 411 kts 331°
2026-05-08 00:30 45.02228 -122.10447 36060 ft 413 kts 331°
2026-05-08 00:30 45.07430 -122.13893 36061 ft 413 kts 331°
2026-05-08 00:31 45.12655 -122.17350 36068 ft 413 kts 331°
2026-05-08 00:31 45.17865 -122.20815 36072 ft 414 kts 331°
2026-05-08 00:32 45.23039 -122.24265 36079 ft 414 kts 331°
2026-05-08 00:32 45.28247 -122.27751 36082 ft 413 kts 331°
2026-05-08 00:33 45.33447 -122.31234 36088 ft 413 kts 331°
2026-05-08 00:33 45.38657 -122.34716 36091 ft 413 kts 331°
2026-05-08 00:34 45.43857 -122.38202 36094 ft 413 kts 331°
2026-05-08 00:34 45.49049 -122.41704 36097 ft 412 kts 330°
2026-05-08 00:35 45.54236 -122.45211 36098 ft 412 kts 331°
2026-05-08 00:35 45.59424 -122.48728 36099 ft 412 kts 330°
2026-05-08 00:36 45.64607 -122.52243 36099 ft 412 kts 331°
2026-05-08 00:36 45.69792 -122.55762 36099 ft 412 kts 330°
2026-05-08 00:37 45.75028 -122.59029 36098 ft 416 kts 339°
2026-05-08 00:38 45.83674 -122.61364 34912 ft 428 kts 346°
2026-05-08 00:38 45.86595 -122.62082 34406 ft 424 kts 346°
2026-05-08 00:38 45.89499 -122.62796 33859 ft 422 kts 346°
2026-05-08 00:38 45.92390 -122.63506 33316 ft 419 kts 346°
2026-05-08 00:39 45.95265 -122.64214 32776 ft 417 kts 346°
2026-05-08 00:39 45.98123 -122.64921 32239 ft 415 kts 346°
2026-05-08 00:39 46.00951 -122.65627 31708 ft 412 kts 346°
2026-05-08 00:39 46.03738 -122.66324 31186 ft 410 kts 345°
2026-05-08 00:40 46.06542 -122.67027 30679 ft 406 kts 345°
2026-05-08 00:40 46.09313 -122.67721 30158 ft 404 kts 346°
2026-05-08 00:40 46.12087 -122.68366 29634 ft 402 kts 347°
2026-05-08 00:40 46.14851 -122.68933 29114 ft 400 kts 348°
2026-05-08 00:41 46.17604 -122.69457 28599 ft 398 kts 348°
2026-05-08 00:41 46.20341 -122.69963 28089 ft 395 kts 348°
2026-05-08 00:41 46.23052 -122.70464 27597 ft 392 kts 348°
2026-05-08 00:41 46.25756 -122.70979 27101 ft 388 kts 348°
2026-05-08 00:42 46.28423 -122.71502 26626 ft 385 kts 348°
2026-05-08 00:42 46.31072 -122.72028 26160 ft 381 kts 348°
2026-05-08 00:42 46.33715 -122.72293 25709 ft 380 kts 354°
2026-05-08 00:42 46.36320 -122.72387 25256 ft 377 kts 354°
2026-05-08 00:43 46.38928 -122.72477 24825 ft 373 kts 354°
2026-05-08 00:43 46.41509 -122.72564 24389 ft 370 kts 354°
2026-05-08 00:43 46.44075 -122.72652 23950 ft 366 kts 354°
2026-05-08 00:43 46.46614 -122.72742 23512 ft 363 kts 354°
2026-05-08 00:44 46.49137 -122.72831 23081 ft 360 kts 355°
2026-05-08 00:44 46.51607 -122.72921 22661 ft 358 kts 355°
2026-05-08 00:44 46.54085 -122.73012 22213 ft 355 kts 355°
2026-05-08 00:44 46.56546 -122.73102 21784 ft 352 kts 355°
2026-05-08 00:45 46.58990 -122.73190 21356 ft 350 kts 355°
2026-05-08 00:45 46.61417 -122.73279 20909 ft 347 kts 355°
2026-05-08 00:45 46.63828 -122.73367 20481 ft 345 kts 355°
2026-05-08 00:45 46.66223 -122.73453 20045 ft 343 kts 355°
2026-05-08 00:46 46.68602 -122.73538 19612 ft 341 kts 355°
2026-05-08 00:46 46.70970 -122.73622 19181 ft 339 kts 355°
2026-05-08 00:46 46.73328 -122.73706 18757 ft 337 kts 355°
2026-05-08 00:46 46.75670 -122.73683 18327 ft 337 kts
2026-05-08 00:47 46.77972 -122.73021 17909 ft 338 kts 15°
2026-05-08 00:47 46.80136 -122.71662 17480 ft 340 kts 27°
2026-05-08 00:47 46.82068 -122.69670 17064 ft 340 kts 37°
2026-05-08 00:47 46.83903 -122.67481 16645 ft 339 kts 37°
2026-05-08 00:48 46.85736 -122.65318 16232 ft 337 kts 36°
2026-05-08 00:48 46.87555 -122.63232 15844 ft 335 kts 36°
2026-05-08 00:48 46.89393 -122.61152 15445 ft 333 kts 36°
2026-05-08 00:48 46.91212 -122.59098 15166 ft 327 kts 36°
2026-05-08 00:49 46.93027 -122.57126 14895 ft 322 kts 30°
2026-05-08 00:49 46.95018 -122.55695 14647 ft 317 kts 17°
2026-05-08 00:49 46.97119 -122.54767 14394 ft 315 kts 14°
2026-05-08 00:49 46.99216 -122.53862 14178 ft 314 kts 14°
2026-05-08 00:50 47.01306 -122.52947 13895 ft 313 kts 15°
2026-05-08 00:50 47.03389 -122.52031 13546 ft 311 kts 15°
2026-05-08 00:50 47.05461 -122.51120 13128 ft 311 kts 15°
2026-05-08 00:50 47.07528 -122.50226 12792 ft 307 kts 12°
2026-05-08 00:51 47.09624 -122.49723 12471 ft 304 kts
2026-05-08 00:51 47.11695 -122.49346 12152 ft 303 kts
2026-05-08 00:51 47.13808 -122.48963 11830 ft 301 kts
2026-05-08 00:51 47.15880 -122.48587 11506 ft 300 kts
2026-05-08 00:52 47.17920 -122.48216 11181 ft 299 kts
2026-05-08 00:52 47.20007 -122.47844 10826 ft 298 kts
2026-05-08 00:52 47.22071 -122.47513 10395 ft 298 kts
2026-05-08 00:52 47.24098 -122.47209 9982 ft 297 kts
2026-05-08 00:53 47.26154 -122.46907 9564 ft 296 kts
2026-05-08 00:53 47.28202 -122.46603 9156 ft 295 kts
2026-05-08 00:53 47.30243 -122.46297 8756 ft 294 kts
2026-05-08 00:53 47.32243 -122.45992 8616 ft 283 kts
2026-05-08 00:54 47.34159 -122.45700 8467 ft 272 kts
2026-05-08 00:54 47.36028 -122.45537 8257 ft 265 kts 358°
2026-05-08 00:54 47.37866 -122.45562 7993 ft 264 kts 358°
2026-05-08 00:54 47.39701 -122.45563 7666 ft 262 kts 359°
2026-05-08 00:55 47.41515 -122.45556 7333 ft 261 kts 359°
2026-05-08 00:55 47.43329 -122.45548 6998 ft 260 kts 359°
2026-05-08 00:55 47.45133 -122.45542 6670 ft 259 kts 359°
2026-05-08 00:55 47.46939 -122.45542 6331 ft 258 kts 359°
2026-05-08 00:56 47.48721 -122.45544 6092 ft 252 kts 359°
2026-05-08 00:56 47.50438 -122.45546 6026 ft 240 kts 359°
2026-05-08 00:56 47.52072 -122.45445 6058 ft 227 kts
2026-05-08 00:56 47.53566 -122.45176 6051 ft 204 kts
2026-05-08 00:57 47.54898 -122.44887 6028 ft 184 kts
2026-05-08 00:57 47.56099 -122.44619 6025 ft 172 kts
2026-05-08 00:57 47.57276 -122.44360 6031 ft 170 kts
2026-05-08 00:57 47.58445 -122.44106 6035 ft 170 kts
2026-05-08 00:58 47.59616 -122.43854 6037 ft 170 kts
2026-05-08 00:58 47.60788 -122.43605 6033 ft 170 kts
2026-05-08 00:58 47.61580 -122.43437 6030 ft 170 kts
2026-05-08 00:58 47.63131 -122.43111 6028 ft 170 kts
2026-05-08 00:59 47.64304 -122.42865 6027 ft 170 kts
2026-05-08 00:59 47.65476 -122.42618 6027 ft 170 kts
2026-05-08 00:59 47.66646 -122.42371 6025 ft 170 kts
2026-05-08 00:59 47.67817 -122.42121 6026 ft 170 kts
2026-05-08 01:00 47.68593 -122.41956 6026 ft 170 kts
2026-05-08 01:00 47.69764 -122.41709 6032 ft 170 kts
2026-05-08 01:00 47.70929 -122.41465 6034 ft 170 kts
2026-05-08 01:00 47.72102 -122.41220 6035 ft 170 kts
2026-05-08 01:01 47.73271 -122.40974 6035 ft 170 kts
2026-05-08 01:01 47.74438 -122.40706 6032 ft 170 kts 13°
2026-05-08 01:01 47.75495 -122.39929 6035 ft 172 kts 39°
2026-05-08 01:01 47.76247 -122.38562 6015 ft 173 kts 63°
2026-05-08 01:02 47.76558 -122.36847 5834 ft 172 kts 89°
2026-05-08 01:02 47.76363 -122.35117 5668 ft 170 kts 114°
2026-05-08 01:02 47.75709 -122.33668 5521 ft 169 kts 138°
2026-05-08 01:02 47.74728 -122.32743 5368 ft 167 kts 162°
2026-05-08 01:03 47.73590 -122.32485 5220 ft 165 kts 185°
2026-05-08 01:03 47.72447 -122.32448 5066 ft 167 kts 160°
2026-05-08 01:03 47.71414 -122.31674 4940 ft 167 kts 160°
2026-05-08 01:03 47.70293 -122.31630 4850 ft 162 kts 190°
2026-05-08 01:04 47.69149 -122.31666 4765 ft 166 kts 179°
2026-05-08 01:04 47.68000 -122.31628 4588 ft 165 kts 181°
2026-05-08 01:04 47.66869 -122.31618 4385 ft 164 kts 181°
2026-05-08 01:04 47.65730 -122.31621 4174 ft 164 kts 181°
2026-05-08 01:05 47.64590 -122.31628 3957 ft 163 kts 181°
2026-05-08 01:05 47.63457 -122.31637 3743 ft 162 kts 181°
2026-05-08 01:05 47.62330 -122.31646 3529 ft 162 kts 181°
2026-05-08 01:05 47.61202 -122.31656 3313 ft 162 kts 181°
2026-05-08 01:06 47.60079 -122.31666 3097 ft 161 kts 181°
2026-05-08 01:06 47.58957 -122.31676 2884 ft 161 kts 181°
2026-05-08 01:06 47.57840 -122.31686 2674 ft 160 kts 181°
2026-05-08 01:06 47.56728 -122.31695 2462 ft 159 kts 181°
2026-05-08 01:07 47.55621 -122.31705 2246 ft 159 kts 181°
2026-05-08 01:07 47.54516 -122.31715 2038 ft 157 kts 181°
2026-05-08 01:07 47.53426 -122.31724 1826 ft 157 kts 181°
2026-05-08 01:07 47.52380 -122.31733 1646 ft 148 kts 181°
2026-05-08 01:08 47.51369 -122.31742 1435 ft 144 kts 182°
2026-05-08 01:08 47.50380 -122.31751 1243 ft 142 kts 182°
2026-05-08 01:08 47.49398 -122.31759 1054 ft 140 kts 182°
2026-05-08 01:08 47.48421 -122.31762 839 ft 142 kts 180°
2026-05-08 01:09 47.47436 -122.31782 671 ft 142 kts 181°
2026-05-08 01:09 47.46441 -122.31781 482 ft 143 kts 180°
2026-05-08 01:09 47.45470 -122.31797 393 ft 129 kts 180°
2026-05-08 01:09 47.44781 -122.31801 394 ft 71 kts 180°
2026-05-08 01:10 47.44451 -122.31803 392 ft 32 kts 176°
2026-05-08 01:10 47.44248 -122.31703 393 ft 30 kts 153°
2026-05-08 01:10 47.44068 -122.31548 394 ft 30 kts 149°
2026-05-08 01:10 47.43890 -122.31404 394 ft 28 kts 153°
2026-05-08 01:11 47.43800 -122.31227 394 ft 22 kts 90°
2026-05-08 01:11 47.43809 -122.31002 394 ft 21 kts 93°
2026-05-08 01:11 47.43806 -122.30787 394 ft 21 kts 90°
2026-05-08 01:11 47.43846 -122.30637 394 ft 15 kts
2026-05-08 01:12 47.43949 -122.30640 394 ft 15 kts 359°